| time (UTC) | temp C | wind direction | speed KPH | gust KPH | rain 1hr cm | rain 24hr cm | rain mn cm | humidity % | barometer mb |
| 20260831203701 | 18 | 257 | 4.8 | 11.3 | 0.00 | 0.00 | 0.00 | 52 | 1033.7 |
| 20260831203156 | 18 | 101 | 6.4 | 12.9 | 0.00 | 0.00 | 0.00 | 53 | 1034.0 |
| 20260831202654 | 18 | 304 | 3.2 | 6.4 | 0.00 | 0.00 | 0.00 | 53 | 1033.9 |
| 20260831202149 | 18 | 226 | 9.7 | 14.5 | 0.00 | 0.00 | 0.00 | 53 | 1034.3 |
| 20260831201648 | 18 | 135 | 11.3 | 12.9 | 0.00 | 0.00 | 0.00 | 52 | 1033.9 |
| 20260831201143 | 19 | 199 | 6.4 | 12.9 | 0.00 | 0.00 | 0.00 | 51 | 1034.1 |
| 20260831200639 | 18 | 94 | 8.0 | 11.3 | 0.00 | 0.00 | 0.00 | 52 | 1034.3 |
| 20260831200138 | 17 | 99 | 4.8 | 6.4 | 0.00 | 0.00 | 0.00 | 52 | 1034.5 |
| 20260831195634 | 18 | 155 | 4.8 | 9.7 | 0.00 | 0.00 | 0.00 | 52 | 1034.1 |
| 20260831195129 | 17 | 246 | 1.6 | 11.3 | 0.00 | 0.00 | 0.00 | 53 | 1034.3 |
| 20260831194624 | 17 | 330 | 3.2 | 6.4 | 0.00 | 0.00 | 0.00 | 52 | 1034.4 |
| 20260831194119 | 17 | 180 | 4.8 | 12.9 | 0.00 | 0.00 | 0.00 | 53 | 1034.4 |
| 20260831193614 | 18 | 289 | 1.6 | 9.7 | 0.00 | 0.00 | 0.00 | 52 | 1034.5 |
| 20260831193109 | 17 | 242 | 3.2 | 6.4 | 0.00 | 0.00 | 0.00 | 51 | 1034.5 |
| 20260831192604 | 17 | 284 | 0.0 | 3.2 | 0.00 | 0.00 | 0.00 | 51 | 1034.9 |
| 20260831192059 | 18 | 52 | 4.8 | 12.9 | 0.00 | 0.00 | 0.00 | 50 | 1034.4 |
| 20260831191555 | 18 | 64 | 9.7 | 14.5 | 0.00 | 0.00 | 0.00 | 49 | 1034.5 |
| 20260831191050 | 17 | 242 | 3.2 | 9.7 | 0.00 | 0.00 | 0.00 | 50 | 1034.6 |
| 20260831190546 | 17 | 348 | 9.7 | 11.3 | 0.00 | 0.00 | 0.00 | 50 | 1035.0 |
| 20260831190044 | 17 | 1 | 1.6 | 11.3 | 0.00 | 0.00 | 0.00 | 51 | 1035.0 |
| 20260831185540 | 17 | 293 | 1.6 | 3.2 | 0.00 | 0.00 | 0.00 | 53 | 1034.9 |
| 20260831185036 | 17 | 290 | 4.8 | 6.4 | 0.00 | 0.00 | 0.00 | 51 | 1034.9 |
| 20260831184530 | 18 | 94 | 3.2 | 11.3 | 0.00 | 0.00 | 0.00 | 51 | 1035.2 |
| 20260831184026 | 17 | 59 | 8.0 | 11.3 | 0.00 | 0.00 | 0.00 | 52 | 1034.9 |
| 20260831183525 | 17 | 53 | 3.2 | 6.4 | 0.00 | 0.00 | 0.00 | 53 | 1035.2 |
| 20260831183024 | 17 | 259 | 1.6 | 4.8 | 0.00 | 0.00 | 0.00 | 53 | 1035.2 |
| 20260831182519 | 17 | 219 | 3.2 | 3.2 | 0.00 | 0.00 | 0.00 | 52 | 1035.2 |
| 20260831182014 | 16 | 275 | 3.2 | 6.4 | 0.00 | 0.00 | 0.00 | 53 | 1035.2 |
| 20260831181509 | 16 | 3 | 3.2 | 4.8 | 0.00 | 0.00 | 0.00 | 54 | 1035.2 |
| 20260831181004 | 17 | 277 | 1.6 | 4.8 | 0.00 | 0.00 | 0.00 | 53 | 1035.3 |
| 20260831180458 | 17 | 97 | 4.8 | 11.3 | 0.00 | 0.00 | 0.00 | 52 | 1035.0 |
| 20260831175958 | 17 | 318 | 3.2 | 6.4 | 0.00 | 0.00 | 0.00 | 51 | 1035.4 |
| 20260831175454 | 17 | 201 | 3.2 | 6.4 | 0.00 | 0.00 | 0.00 | 50 | 1035.4 |
| 20260831174950 | 18 | 280 | 1.6 | 9.7 | 0.00 | 0.00 | 0.00 | 49 | 1035.4 |
| 20260831174440 | 17 | 262 | 0.0 | 1.6 | 0.00 | 0.00 | 0.00 | 51 | 1035.3 |
| 20260831173939 | 17 | 274 | 3.2 | 4.8 | 0.00 | 0.00 | 0.00 | 53 | 1035.4 |
| 20260831173438 | 17 | 103 | 3.2 | 6.4 | 0.00 | 0.00 | 0.00 | 51 | 1035.4 |
| 20260831172934 | 17 | 153 | 1.6 | 9.7 | 0.00 | 0.00 | 0.00 | 52 | 1035.4 |
| 20260831172429 | 17 | 224 | 3.2 | 3.2 | 0.00 | 0.00 | 0.00 | 49 | 1035.6 |
| 20260831171924 | 17 | 261 | 1.6 | 4.8 | 0.00 | 0.00 | 0.00 | 53 | 1035.4 |
| 20260831171420 | 16 | 221 | 1.6 | 4.8 | 0.00 | 0.00 | 0.00 | 51 | 1035.6 |
| 20260831170916 | 17 | 294 | 1.6 | 3.2 | 0.00 | 0.00 | 0.00 | 51 | 1035.3 |
| 20260831170412 | 16 | 286 | 4.8 | 4.8 | 0.00 | 0.00 | 0.00 | 50 | 1035.4 |
| 20260831165909 | 17 | 44 | 3.2 | 9.7 | 0.00 | 0.00 | 0.00 | 51 | 1035.6 |
| 20260831165405 | 17 | 59 | 4.8 | 12.9 | 0.00 | 0.00 | 0.00 | 50 | 1035.3 |
| 20260831164901 | 17 | 236 | 4.8 | 12.9 | 0.00 | 0.00 | 0.00 | 50 | 1035.4 |
| 20260831164357 | 17 | 282 | 1.6 | 3.2 | 0.00 | 0.00 | 0.00 | 49 | 1035.2 |
| 20260831163852 | 17 | 320 | 3.2 | 6.4 | 0.00 | 0.00 | 0.00 | 49 | 1035.3 |
| 20260831163347 | 17 | 128 | 4.8 | 4.8 | 0.00 | 0.00 | 0.00 | 47 | 1035.4 |
| 20260831162846 | 17 | 238 | 1.6 | 3.2 | 0.00 | 0.00 | 0.00 | 48 | 1035.2 |
| 20260831162342 | 18 | 260 | 0.0 | 6.4 | 0.00 | 0.00 | 0.00 | 47 | 1035.2 |
| 20260831161840 | 18 | 230 | 0.0 | 1.6 | 0.00 | 0.00 | 0.00 | 46 | 1035.4 |
| 20260831161336 | 17 | 346 | 3.2 | 4.8 | 0.00 | 0.00 | 0.00 | 48 | 1035.2 |
| 20260831160831 | 17 | 242 | 0.0 | 1.6 | 0.00 | 0.00 | 0.00 | 49 | 1035.2 |
| 20260831160326 | 17 | 274 | 0.0 | 4.8 | 0.00 | 0.00 | 0.00 | 49 | 1034.9 |
| 20260831155820 | 17 | 254 | 0.0 | 3.2 | 0.00 | 0.00 | 0.00 | 49 | 1035.2 |
| 20260831155315 | 16 | 259 | 0.0 | 4.8 | 0.00 | 0.00 | 0.00 | 48 | 1035.2 |
| 20260831154811 | 17 | 250 | 0.0 | 1.6 | 0.00 | 0.00 | 0.00 | 46 | 1035.2 |
| 20260831154307 | 17 | 246 | 0.0 | 1.6 | 0.00 | 0.00 | 0.00 | 46 | 1034.8 |
| 20260831153805 | 17 | 231 | 1.6 | 4.8 | 0.00 | 0.00 | 0.00 | 46 | 1035.0 |
| 20260831153301 | 17 | 230 | 1.6 | 6.4 | 0.00 | 0.00 | 0.00 | 45 | 1034.9 |
| 20260831152757 | 17 | 236 | 9.7 | 11.3 | 0.00 | 0.00 | 0.00 | 45 | 1034.6 |
| 20260831152253 | 17 | 254 | 1.6 | 4.8 | 0.00 | 0.00 | 0.00 | 46 | 1035.0 |
| 20260831151748 | 17 | 291 | 3.2 | 4.8 | 0.00 | 0.00 | 0.00 | 44 | 1034.6 |
| 20260831151247 | 17 | 223 | 0.0 | 1.6 | 0.00 | 0.00 | 0.00 | 46 | 1034.6 |
| 20260831150742 | 17 | 23 | 3.2 | 4.8 | 0.00 | 0.00 | 0.00 | 50 | 1034.8 |
| 20260831150238 | 18 | 279 | 1.6 | 4.8 | 0.00 | 0.00 | 0.00 | 44 | 1034.8 |
| 20260831145736 | 18 | 234 | 1.6 | 3.2 | 0.00 | 0.00 | 0.00 | 47 | 1034.8 |
| 20260831145233 | 17 | 248 | 1.6 | 3.2 | 0.00 | 0.00 | 0.00 | 45 | 1034.6 |
| 20260831144729 | 16 | 247 | 0.0 | 1.6 | 0.00 | 0.00 | 0.00 | 46 | 1034.9 |
| 20260831144225 | 16 | 237 | 1.6 | 9.7 | 0.00 | 0.00 | 0.00 | 46 | 1035.0 |
| 20260831143724 | 16 | 263 | 0.0 | 0.0 | 0.00 | 0.00 | 0.00 | 47 | 1034.9 |
| 20260831143220 | 16 | 239 | 1.6 | 1.6 | 0.00 | 0.00 | 0.00 | 51 | 1034.8 |
| 20260831142715 | 15 | 257 | 1.6 | 4.8 | 0.00 | 0.00 | 0.00 | 49 | 1034.6 |
| 20260831142211 | 15 | 229 | 3.2 | 3.2 | 0.00 | 0.00 | 0.00 | 51 | 1035.0 |
| 20260831141710 | 15 | 244 | 0.0 | 0.0 | 0.00 | 0.00 | 0.00 | 53 | 1034.8 |
| 20260831141205 | 14 | 250 | 0.0 | 1.6 | 0.00 | 0.00 | 0.00 | 61 | 1034.8 |
| 20260831140704 | 13 | 243 | 1.6 | 3.2 | 0.00 | 0.00 | 0.00 | 58 | 1034.5 |
| 20260831140159 | 13 | 240 | 3.2 | 3.2 | 0.00 | 0.00 | 0.00 | 59 | 1034.6 |
| 20260831135657 | 12 | 233 | 1.6 | 3.2 | 0.00 | 0.00 | 0.00 | 64 | 1034.4 |
| 20260831135153 | 12 | 234 | 1.6 | 3.2 | 0.00 | 0.00 | 0.00 | 62 | 1034.3 |
| 20260831134649 | 12 | 240 | 1.6 | 3.2 | 0.00 | 0.00 | 0.00 | 62 | 1034.1 |
| 20260831134144 | 12 | 219 | 3.2 | 3.2 | 0.00 | 0.00 | 0.00 | 63 | 1034.3 |
| 20260831133643 | 12 | 215 | 3.2 | 3.2 | 0.00 | 0.00 | 0.00 | 63 | 1034.0 |
| 20260831133138 | 12 | 237 | 1.6 | 3.2 | 0.00 | 0.00 | 0.00 | 63 | 1034.0 |
| 20260831132634 | 12 | 240 | 1.6 | 1.6 | 0.00 | 0.00 | 0.00 | 61 | 1033.9 |
| 20260831132133 | 12 | 232 | 3.2 | 3.2 | 0.00 | 0.00 | 0.00 | 59 | 1033.9 |
| 20260831131628 | 12 | 218 | 3.2 | 4.8 | 0.00 | 0.00 | 0.00 | 57 | 1033.9 |
| 20260831131124 | 12 | 233 | 3.2 | 4.8 | 0.00 | 0.00 | 0.00 | 54 | 1033.7 |
| 20260831130619 | 12 | 222 | 1.6 | 4.8 | 0.00 | 0.00 | 0.00 | 53 | 1033.6 |
| 20260831130115 | 12 | 235 | 1.6 | 1.6 | 0.00 | 0.00 | 0.00 | 57 | 1033.5 |
| 20260831125613 | 12 | 222 | 3.2 | 3.2 | 0.00 | 0.00 | 0.00 | 56 | 1033.6 |
| 20260831125109 | 12 | 223 | 3.2 | 4.8 | 0.00 | 0.00 | 0.00 | 56 | 1033.7 |
| 20260831124605 | 11 | 228 | 3.2 | 4.8 | 0.00 | 0.00 | 0.00 | 57 | 1033.5 |
| 20260831124101 | 12 | 222 | 3.2 | 4.8 | 0.00 | 0.00 | 0.00 | 57 | 1033.3 |
| 20260831123600 | 11 | 226 | 3.2 | 4.8 | 0.00 | 0.00 | 0.00 | 60 | 1033.6 |
| 20260831123054 | 12 | 213 | 3.2 | 4.8 | 0.00 | 0.00 | 0.00 | 58 | 1033.5 |
| 20260831122549 | 12 | 218 | 3.2 | 4.8 | 0.00 | 0.00 | 0.00 | 58 | 1033.3 |
| 20260831122044 | 12 | 242 | 1.6 | 4.8 | 0.00 | 0.00 | 0.00 | 57 | 1033.2 |
| 20260831121539 | 13 | 211 | 3.2 | 4.8 | 0.00 | 0.00 | 0.00 | 56 | 1033.1 |
| 20260831121035 | 12 | 189 | 6.4 | 6.4 | 0.00 | 0.00 | 0.00 | 53 | 1033.1 |
| 20260831120534 | 12 | 224 | 3.2 | 6.4 | 0.00 | 0.00 | 0.00 | 54 | 1033.2 |
| 20260831120030 | 12 | 218 | 3.2 | 4.8 | 0.00 | 0.00 | 0.00 | 55 | 1032.9 |
| 20260831115526 | 12 | 196 | 3.2 | 6.4 | 0.00 | 0.00 | 0.00 | 56 | 1033.2 |
| 20260831115021 | 12 | 217 | 3.2 | 9.7 | 0.00 | 0.00 | 0.00 | 59 | 1033.1 |
| 20260831114520 | 12 | 212 | 4.8 | 4.8 | 0.00 | 0.00 | 0.00 | 56 | 1032.9 |
| 20260831114016 | 11 | 201 | 4.8 | 6.4 | 0.00 | 0.00 | 0.00 | 58 | 1032.9 |
| 20260831113514 | 12 | 208 | 4.8 | 4.8 | 0.00 | 0.00 | 0.00 | 59 | 1033.2 |
| 20260831113010 | 12 | 216 | 3.2 | 4.8 | 0.00 | 0.00 | 0.00 | 58 | 1033.3 |
| 20260831112509 | 12 | 211 | 4.8 | 4.8 | 0.00 | 0.00 | 0.00 | 59 | 1032.8 |
| 20260831112004 | 12 | 232 | 4.8 | 4.8 | 0.00 | 0.00 | 0.00 | 55 | 1032.9 |
| 20260831111501 | 12 | 202 | 4.8 | 6.4 | 0.00 | 0.00 | 0.00 | 57 | 1033.2 |
| 20260831110956 | 12 | 210 | 4.8 | 4.8 | 0.00 | 0.00 | 0.00 | 61 | 1033.1 |
| 20260831110451 | 12 | 218 | 4.8 | 6.4 | 0.00 | 0.00 | 0.00 | 56 | 1032.7 |
| 20260831105950 | 12 | 207 | 3.2 | 4.8 | 0.00 | 0.00 | 0.00 | 59 | 1032.8 |
| 20260831105445 | 12 | 232 | 3.2 | 6.4 | 0.00 | 0.00 | 0.00 | 57 | 1032.9 |
| 20260831104945 | 12 | 202 | 4.8 | 4.8 | 0.00 | 0.00 | 0.00 | 56 | 1032.9 |
| 20260831104442 | 12 | 217 | 6.4 | 6.4 | 0.00 | 0.00 | 0.00 | 55 | 1032.8 |
| 20260831103937 | 11 | 242 | 4.8 | 6.4 | 0.00 | 0.00 | 0.00 | 58 | 1033.1 |
| 20260831103432 | 11 | 212 | 4.8 | 4.8 | 0.00 | 0.00 | 0.00 | 61 | 1032.7 |
| 20260831102928 | 11 | 205 | 3.2 | 4.8 | 0.00 | 0.00 | 0.00 | 64 | 1032.8 |
| 20260831102427 | 11 | 237 | 0.0 | 1.6 | 0.00 | 0.00 | 0.00 | 58 | 1032.5 |
| 20260831101922 | 10 | 230 | 3.2 | 4.8 | 0.00 | 0.00 | 0.00 | 64 | 1032.8 |
| 20260831101418 | 10 | 208 | 4.8 | 4.8 | 0.00 | 0.00 | 0.00 | 66 | 1032.8 |
| 20260831100914 | 10 | 204 | 4.8 | 4.8 | 0.00 | 0.00 | 0.00 | 65 | 1032.5 |
| 20260831100409 | 10 | 209 | 4.8 | 4.8 | 0.00 | 0.00 | 0.00 | 65 | 1032.5 |
| 20260831095904 | 10 | 205 | 4.8 | 4.8 | 0.00 | 0.00 | 0.00 | 65 | 1032.4 |
| 20260831095403 | 10 | 208 | 4.8 | 4.8 | 0.00 | 0.00 | 0.00 | 65 | 1032.5 |
| 20260831094859 | 10 | 205 | 4.8 | 4.8 | 0.00 | 0.00 | 0.00 | 67 | 1032.3 |
| 20260831094354 | 10 | 209 | 4.8 | 4.8 | 0.00 | 0.00 | 0.00 | 67 | 1032.4 |
| 20260831093850 | 10 | 204 | 4.8 | 4.8 | 0.00 | 0.00 | 0.00 | 68 | 1032.1 |
| 20260831093345 | 10 | 212 | 3.2 | 4.8 | 0.00 | 0.00 | 0.00 | 67 | 1032.3 |
| 20260831092842 | 10 | 209 | 4.8 | 4.8 | 0.00 | 0.00 | 0.00 | 66 | 1032.1 |
| 20260831092337 | 10 | 221 | 3.2 | 4.8 | 0.00 | 0.00 | 0.00 | 66 | 1032.1 |
| 20260831091832 | 11 | 226 | 3.2 | 3.2 | 0.00 | 0.00 | 0.00 | 66 | 1032.3 |
| 20260831091328 | 11 | 236 | 1.6 | 3.2 | 0.00 | 0.00 | 0.00 | 67 | 1032.1 |
| 20260831090822 | 11 | 245 | 1.6 | 3.2 | 0.00 | 0.00 | 0.00 | 64 | 1032.1 |
| 20260831090318 | 11 | 226 | 3.2 | 3.2 | 0.00 | 0.00 | 0.00 | 65 | 1032.0 |
| 20260831085814 | 11 | 238 | 4.8 | 6.4 | 0.00 | 0.00 | 0.00 | 66 | 1032.0 |
| 20260831085309 | 11 | 228 | 3.2 | 6.4 | 0.00 | 0.00 | 0.00 | 63 | 1032.0 |
| 20260831084804 | 11 | 219 | 3.2 | 6.4 | 0.00 | 0.00 | 0.00 | 63 | 1032.1 |
| 20260831084300 | 10 | 240 | 1.6 | 4.8 | 0.00 | 0.00 | 0.00 | 69 | 1032.1 |
| 20260831083755 | 10 | 210 | 3.2 | 6.4 | 0.00 | 0.00 | 0.00 | 68 | 1032.3 |
| 20260831083246 | 10 | 226 | 3.2 | 3.2 | 0.00 | 0.00 | 0.00 | 67 | 1032.0 |
| 20260831082744 | 10 | 220 | 3.2 | 4.8 | 0.00 | 0.00 | 0.00 | 68 | 1032.3 |
| 20260831082239 | 10 | 212 | 3.2 | 4.8 | 0.00 | 0.00 | 0.00 | 67 | 1032.3 |
| 20260831081735 | 10 | 213 | 4.8 | 4.8 | 0.00 | 0.00 | 0.00 | 68 | 1032.4 |
| 20260831081230 | 10 | 219 | 3.2 | 4.8 | 0.00 | 0.00 | 0.00 | 65 | 1032.5 |
| 20260831080725 | 10 | 211 | 4.8 | 4.8 | 0.00 | 0.00 | 0.00 | 65 | 1032.3 |
| 20260831080220 | 10 | 227 | 1.6 | 4.8 | 0.00 | 0.00 | 0.00 | 68 | 1032.4 |
| 20260831075716 | 10 | 224 | 3.2 | 3.2 | 0.00 | 0.00 | 0.00 | 67 | 1032.4 |
| 20260831075211 | 11 | 217 | 3.2 | 4.8 | 0.00 | 0.00 | 0.00 | 66 | 1032.4 |
| 20260831074710 | 11 | 212 | 3.2 | 4.8 | 0.00 | 0.00 | 0.00 | 67 | 1032.7 |
| 20260831074204 | 11 | 225 | 3.2 | 3.2 | 0.00 | 0.00 | 0.00 | 65 | 1032.3 |
| 20260831073659 | 11 | 215 | 3.2 | 3.2 | 0.00 | 0.00 | 0.00 | 66 | 1032.7 |
| 20260831073159 | 11 | 240 | 1.6 | 3.2 | 0.00 | 0.00 | 0.00 | 65 | 1032.8 |
| 20260831072654 | 11 | 219 | 3.2 | 4.8 | 0.00 | 0.00 | 0.00 | 64 | 1032.9 |
| 20260831072151 | 11 | 240 | 1.6 | 3.2 | 0.00 | 0.00 | 0.00 | 63 | 1032.7 |
| 20260831071650 | 11 | 238 | 3.2 | 4.8 | 0.00 | 0.00 | 0.00 | 69 | 1032.8 |
| 20260831071145 | 11 | 249 | 0.0 | 3.2 | 0.00 | 0.00 | 0.00 | 66 | 1032.7 |
| 20260831070644 | 11 | 247 | 0.0 | 3.2 | 0.00 | 0.00 | 0.00 | 69 | 1032.9 |
| 20260831070133 | 12 | 198 | 3.2 | 4.8 | 0.00 | 0.00 | 0.00 | 61 | 1032.8 |
| 20260831065631 | 12 | 236 | 3.2 | 4.8 | 0.00 | 0.00 | 0.00 | 61 | 1032.7 |
| 20260831065125 | 11 | 229 | 3.2 | 4.8 | 0.00 | 0.00 | 0.00 | 66 | 1032.8 |
| 20260831064620 | 11 | 220 | 3.2 | 4.8 | 0.00 | 0.00 | 0.00 | 67 | 1033.1 |
| 20260831064116 | 11 | 218 | 3.2 | 4.8 | 0.00 | 0.00 | 0.00 | 65 | 1033.1 |
| 20260831063612 | 12 | 210 | 3.2 | 4.8 | 0.00 | 0.00 | 0.00 | 64 | 1032.9 |
| 20260831063106 | 11 | 213 | 3.2 | 4.8 | 0.00 | 0.00 | 0.00 | 63 | 1033.1 |
| 20260831062601 | 11 | 210 | 3.2 | 4.8 | 0.00 | 0.00 | 0.00 | 66 | 1033.1 |
| 20260831062100 | 12 | 215 | 3.2 | 4.8 | 0.00 | 0.00 | 0.00 | 61 | 1033.3 |
| 20260831061558 | 12 | 194 | 4.8 | 4.8 | 0.00 | 0.00 | 0.00 | 59 | 1033.5 |
| 20260831061055 | 12 | 246 | 3.2 | 4.8 | 0.00 | 0.00 | 0.00 | 59 | 1033.2 |
| 20260831060550 | 12 | 228 | 3.2 | 6.4 | 0.00 | 0.00 | 0.00 | 62 | 1033.6 |
| 20260831060045 | 12 | 235 | 3.2 | 6.4 | 0.00 | 0.00 | 0.00 | 61 | 1033.3 |
| 20260831055539 | 12 | 203 | 3.2 | 4.8 | 0.00 | 0.25 | 0.25 | 62 | 1033.6 |
| 20260831055035 | 12 | 220 | 3.2 | 9.7 | 0.00 | 0.25 | 0.25 | 62 | 1033.7 |
| 20260831054534 | 12 | 242 | 3.2 | 4.8 | 0.00 | 0.25 | 0.25 | 60 | 1033.9 |
| 20260831054033 | 12 | 221 | 3.2 | 4.8 | 0.00 | 0.25 | 0.25 | 60 | 1033.9 |
| 20260831053532 | 12 | 219 | 3.2 | 4.8 | 0.00 | 0.25 | 0.25 | 59 | 1033.6 |
| 20260831053027 | 12 | 219 | 8.0 | 9.7 | 0.00 | 0.25 | 0.25 | 58 | 1033.7 |
| 20260831052526 | 12 | 236 | 4.8 | 4.8 | 0.00 | 0.25 | 0.25 | 58 | 1033.7 |
| 20260831052021 | 13 | 238 | 4.8 | 6.4 | 0.00 | 0.25 | 0.25 | 58 | 1033.7 |
| 20260831051518 | 13 | 225 | 3.2 | 14.5 | 0.00 | 0.25 | 0.25 | 59 | 1033.6 |
| 20260831051012 | 13 | 259 | 3.2 | 9.7 | 0.00 | 0.25 | 0.25 | 56 | 1033.9 |
| 20260831050512 | 13 | 222 | 4.8 | 9.7 | 0.00 | 0.25 | 0.25 | 57 | 1034.0 |
| 20260831050011 | 13 | 242 | 4.8 | 9.7 | 0.00 | 0.25 | 0.25 | 57 | 1033.9 |
| 20260831045510 | 13 | 237 | 6.4 | 14.5 | 0.00 | 0.25 | 0.25 | 56 | 1034.4 |
| 20260831045006 | 13 | 268 | 8.0 | 11.3 | 0.00 | 0.25 | 0.25 | 55 | 1034.4 |
| 20260831044501 | 13 | 264 | 6.4 | 11.3 | 0.00 | 0.25 | 0.25 | 55 | 1034.6 |
| 20260831043956 | 13 | 219 | 17.7 | 20.9 | 0.00 | 0.25 | 0.25 | 55 | 1034.8 |
| 20260831043455 | 13 | 237 | 3.2 | 3.2 | 0.00 | 0.25 | 0.25 | 62 | 1034.5 |
| 20260831042951 | 13 | 292 | 0.0 | 3.2 | 0.00 | 0.25 | 0.25 | 58 | 1034.8 |
| 20260831042450 | 14 | 225 | 3.2 | 6.4 | 0.00 | 0.25 | 0.25 | 53 | 1034.8 |
| 20260831041945 | 13 | 259 | 4.8 | 6.4 | 0.00 | 0.25 | 0.25 | 54 | 1034.5 |
| 20260831041439 | 13 | 212 | 6.4 | 12.9 | 0.00 | 0.25 | 0.25 | 53 | 1034.4 |
| 20260831040934 | 13 | 224 | 3.2 | 9.7 | 0.00 | 0.25 | 0.25 | 58 | 1034.1 |
| 20260831040429 | 13 | 214 | 4.8 | 4.8 | 0.00 | 0.25 | 0.25 | 55 | 1034.3 |
| 20260831035926 | 13 | 210 | 4.8 | 4.8 | 0.00 | 0.25 | 0.25 | 54 | 1033.9 |
| 20260831035426 | 13 | 224 | 3.2 | 4.8 | 0.00 | 0.25 | 0.25 | 58 | 1034.0 |
| 20260831034921 | 12 | 221 | 3.2 | 3.2 | 0.00 | 0.25 | 0.25 | 60 | 1033.6 |
| 20260831034416 | 13 | 245 | 1.6 | 3.2 | 0.00 | 0.25 | 0.25 | 57 | 1033.6 |
| 20260831033911 | 14 | 222 | 3.2 | 4.8 | 0.00 | 0.25 | 0.25 | 52 | 1033.5 |
| 20260831033407 | 14 | 224 | 3.2 | 6.4 | 0.00 | 0.25 | 0.25 | 49 | 1033.6 |
| 20260831032902 | 14 | 247 | 1.6 | 3.2 | 0.00 | 0.25 | 0.25 | 50 | 1033.3 |
| 20260831032356 | 15 | 208 | 3.2 | 11.3 | 0.00 | 0.25 | 0.25 | 51 | 1033.6 |
| 20260831031852 | 14 | 250 | 3.2 | 6.4 | 0.00 | 0.25 | 0.25 | 50 | 1033.5 |
| 20260831031351 | 13 | 240 | 3.2 | 6.4 | 0.00 | 0.25 | 0.25 | 51 | 1033.5 |
| 20260831030846 | 13 | 234 | 3.2 | 6.4 | 0.00 | 0.25 | 0.25 | 58 | 1033.5 |
| 20260831030344 | 12 | 269 | 1.6 | 4.8 | 0.00 | 0.25 | 0.25 | 56 | 1033.3 |
| 20260831025843 | 12 | 247 | 0.0 | 0.0 | 0.00 | 0.25 | 0.25 | 65 | 1033.5 |
| 20260831025343 | 11 | 250 | 0.0 | 4.8 | 0.00 | 0.25 | 0.25 | 68 | 1033.3 |
| 20260831024838 | 11 | 222 | 3.2 | 4.8 | 0.00 | 0.25 | 0.25 | 64 | 1033.2 |
| 20260831024337 | 12 | 232 | 3.2 | 4.8 | 0.00 | 0.25 | 0.25 | 63 | 1033.2 |
| 20260831023832 | 13 | 202 | 4.8 | 4.8 | 0.00 | 0.25 | 0.25 | 58 | 1032.9 |
| 20260831023330 | 12 | 235 | 3.2 | 9.7 | 0.00 | 0.25 | 0.25 | 58 | 1033.2 |
| 20260831022826 | 12 | 199 | 4.8 | 6.4 | 0.00 | 0.25 | 0.25 | 60 | 1033.3 |
| 20260831022325 | 13 | 224 | 3.2 | 4.8 | 0.00 | 0.25 | 0.25 | 62 | 1033.1 |
| 20260831021820 | 13 | 178 | 8.0 | 11.3 | 0.00 | 0.25 | 0.25 | 58 | 1033.2 |
| 20260831021319 | 13 | 212 | 4.8 | 9.7 | 0.00 | 0.25 | 0.25 | 59 | 1032.9 |
| 20260831020815 | 13 | 218 | 4.8 | 6.4 | 0.00 | 0.25 | 0.25 | 63 | 1033.3 |
| 20260831020315 | 12 | 208 | 4.8 | 6.4 | 0.00 | 0.25 | 0.25 | 64 | 1032.8 |
| 20260831015810 | 12 | 191 | 4.8 | 6.4 | 0.00 | 0.25 | 0.25 | 63 | 1032.7 |
| 20260831015306 | 12 | 208 | 4.8 | 4.8 | 0.00 | 0.25 | 0.25 | 68 | 1032.8 |
| 20260831014800 | 12 | 215 | 4.8 | 4.8 | 0.00 | 0.25 | 0.25 | 69 | 1032.8 |
| 20260831014255 | 12 | 220 | 4.8 | 9.7 | 0.00 | 0.25 | 0.25 | 70 | 1032.5 |
| 20260831013751 | 12 | 217 | 3.2 | 4.8 | 0.00 | 0.25 | 0.25 | 64 | 1032.7 |
| 20260831013250 | 12 | 201 | 3.2 | 4.8 | 0.00 | 0.25 | 0.25 | 65 | 1032.5 |
| 20260831012745 | 13 | 221 | 3.2 | 3.2 | 0.00 | 0.25 | 0.25 | 63 | 1032.4 |
| 20260831012241 | 12 | 244 | 4.8 | 12.9 | 0.00 | 0.25 | 0.25 | 63 | 1032.5 |
| 20260831011740 | 12 | 206 | 4.8 | 4.8 | 0.00 | 0.25 | 0.25 | 67 | 1032.7 |
| 20260831011236 | 12 | 228 | 3.2 | 4.8 | 0.00 | 0.25 | 0.25 | 72 | 1032.5 |
| 20260831010731 | 12 | 205 | 4.8 | 6.4 | 0.00 | 0.25 | 0.25 | 71 | 1032.5 |
| 20260831010225 | 12 | 211 | 4.8 | 4.8 | 0.00 | 0.25 | 0.25 | 70 | 1032.7 |
| 20260831005721 | 13 | 237 | 3.2 | 3.2 | 0.00 | 0.25 | 0.25 | 71 | 1032.8 |
| 20260831005216 | 13 | 275 | 0.0 | 0.0 | 0.00 | 0.25 | 0.25 | 64 | 1032.5 |
| 20260831004711 | 15 | 237 | 0.0 | 0.0 | 0.00 | 0.25 | 0.25 | 64 | 1032.7 |
| 20260831004208 | 15 | 268 | 0.0 | 1.6 | 0.00 | 0.25 | 0.25 | 57 | 1032.5 |
| 20260831003703 | 15 | 271 | 3.2 | 4.8 | 0.00 | 0.25 | 0.25 | 51 | 1032.8 |
| 20260831003159 | 15 | 274 | 0.0 | 3.2 | 0.00 | 0.25 | 0.25 | 52 | 1032.5 |
| 20260831002658 | 16 | 265 | 3.2 | 12.9 | 0.00 | 0.25 | 0.25 | 51 | 1032.4 |
| 20260831002152 | 16 | 259 | 11.3 | 17.7 | 0.00 | 0.25 | 0.25 | 52 | 1032.4 |
| 20260831001649 | 16 | 260 | 1.6 | 3.2 | 0.00 | 0.25 | 0.25 | 51 | 1032.7 |
| 20260831001144 | 16 | 11 | 3.2 | 3.2 | 0.00 | 0.25 | 0.25 | 50 | 1032.3 |
| 20260831000640 | 17 | 322 | 8.0 | 9.7 | 0.00 | 0.25 | 0.25 | 52 | 1032.5 |
| 20260831000134 | 17 | 56 | 3.2 | 9.7 | 0.00 | 0.25 | 0.25 | 49 | 1032.1 |
| 20260830235633 | 17 | 300 | 3.2 | 4.8 | 0.00 | 0.25 | 0.25 | 50 | 1032.4 |
| 20260830235128 | 17 | 266 | 0.0 | 9.7 | 0.00 | 0.25 | 0.25 | 45 | 1032.5 |
| 20260830234623 | 18 | 358 | 3.2 | 6.4 | 0.00 | 0.25 | 0.25 | 46 | 1032.5 |
| 20260830234119 | 19 | 244 | 0.0 | 0.0 | 0.00 | 0.25 | 0.25 | 42 | 1032.4 |
| 20260830233614 | 18 | 233 | 0.0 | 3.2 | 0.00 | 0.25 | 0.25 | 43 | 1032.4 |
| 20260830233110 | 18 | 218 | 1.6 | 1.6 | 0.00 | 0.25 | 0.25 | 48 | 1032.5 |
| 20260830232606 | 16 | 239 | 0.0 | 0.0 | 0.00 | 0.25 | 0.25 | 59 | 1032.3 |
| 20260830232102 | 16 | 234 | 1.6 | 1.6 | 0.00 | 0.25 | 0.25 | 63 | 1032.4 |
| 20260830231557 | 16 | 230 | 1.6 | 3.2 | 0.00 | 0.25 | 0.25 | 57 | 1032.4 |
| 20260830231056 | 15 | 228 | 1.6 | 4.8 | 0.00 | 0.25 | 0.25 | 53 | 1032.3 |
| 20260830230552 | 15 | 250 | 1.6 | 1.6 | 0.00 | 0.25 | 0.25 | 75 | 1032.4 |
| 20260830230046 | 15 | 228 | 3.2 | 4.8 | 0.00 | 0.25 | 0.25 | 64 | 1032.3 |
| 20260830225542 | 15 | 250 | 0.0 | 3.2 | 0.00 | 0.25 | 0.25 | 62 | 1032.3 |
| 20260830225041 | 15 | 130 | 6.4 | 11.3 | 0.00 | 0.25 | 0.25 | 62 | 1032.3 |
| 20260830224539 | 15 | 133 | 6.4 | 6.4 | 0.00 | 0.25 | 0.25 | 62 | 1032.4 |
| 20260830224037 | 16 | 247 | 0.0 | 4.8 | 0.00 | 0.25 | 0.25 | 55 | 1032.1 |
| 20260830223533 | 16 | 256 | 0.0 | 6.4 | 0.00 | 0.25 | 0.25 | 61 | 1032.4 |
| 20260830223033 | 15 | 230 | 1.6 | 1.6 | 0.00 | 0.25 | 0.25 | 59 | 1032.1 |
| 20260830222527 | 16 | 235 | 1.6 | 1.6 | 0.00 | 0.25 | 0.25 | 65 | 1032.4 |
| 20260830222023 | 15 | 258 | 3.2 | 4.8 | 0.00 | 0.25 | 0.25 | 61 | 1032.4 |
| 20260830221519 | 15 | 257 | 1.6 | 3.2 | 0.00 | 0.25 | 0.25 | 65 | 1032.4 |
| 20260830221010 | 15 | 247 | 1.6 | 11.3 | 0.00 | 0.25 | 0.25 | 66 | 1032.3 |
| 20260830220509 | 15 | 264 | 3.2 | 9.7 | 0.00 | 0.25 | 0.25 | 63 | 1032.4 |
| 20260830220008 | 14 | 251 | 4.8 | 12.9 | 0.00 | 0.25 | 0.25 | 64 | 1032.5 |
| 20260830215502 | 13 | 235 | 3.2 | 12.9 | 0.00 | 0.25 | 0.25 | 69 | 1032.4 |
| 20260830214956 | 13 | 247 | 6.4 | 14.5 | 0.00 | 0.25 | 0.25 | 72 | 1032.1 |
| 20260830214451 | 12 | 234 | 4.8 | 14.5 | 0.00 | 0.25 | 0.25 | 74 | 1032.4 |
| 20260830213946 | 12 | 282 | 6.4 | 9.7 | 0.00 | 0.25 | 0.25 | 74 | 1032.3 |
| 20260830213441 | 11 | 263 | 3.2 | 22.5 | 0.00 | 0.25 | 0.25 | 76 | 1032.4 |
| 20260830212937 | 11 | 251 | 1.6 | 9.7 | 0.00 | 0.25 | 0.25 | 77 | 1032.7 |
| 20260830212432 | 11 | 263 | 4.8 | 16.1 | 0.00 | 0.25 | 0.25 | 79 | 1032.5 |
| 20260830211932 | 11 | 293 | 3.2 | 25.7 | 0.00 | 0.25 | 0.25 | 80 | 1032.9 |
| 20260830211427 | 11 | 239 | 12.9 | 20.9 | 0.00 | 0.25 | 0.25 | 79 | 1033.1 |
| 20260830210922 | 10 | 223 | 4.8 | 14.5 | 0.00 | 0.25 | 0.25 | 85 | 1033.2 |
| 20260830210421 | 10 | 261 | 6.4 | 17.7 | 0.18 | 0.25 | 0.25 | 86 | 1033.2 |
| 20260830205919 | 10 | 223 | 17.7 | 30.6 | 0.18 | 0.25 | 0.25 | 83 | 1033.1 |
| 20260830205418 | 10 | 215 | 6.4 | 20.9 | 0.00 | 0.23 | 0.23 | 86 | 1032.9 |
| 20260830204914 | 10 | 289 | 12.9 | 37.0 | 0.00 | 0.23 | 0.23 | 83 | 1033.1 |
| 20260830204412 | 10 | 286 | 9.7 | 11.3 | 0.13 | 0.23 | 0.23 | 84 | 1033.1 |